Overview Statistics Trail Chart Weather Telemetry Raw packets
 

This is the latest recevied weather packets stored in our database for station/object KB1RMA-4. If no packets are shown the sender has not sent any weather packets the latest 10 day(s).

<< 63 64 65 66 67 68 69 >>
Time Temp. Humidity Pressure Rain* Wind** Luminosity Snow
1788196016 22.78° C 54% 1020.2 hPa 0 mm - 759 W/m² -
1788195713 22.78° C 53% 1020.4 hPa 0 mm - 669 W/m² -
1788195409 22.78° C 52% 1020.2 hPa 0 mm - 682 W/m² -
1788195105 22.78° C 53% 1020.4 hPa 0 mm - 674 W/m² -
1788194801 22.22° C 51% 1020.6 hPa 0 mm - 645 W/m² -
1788194496 22.22° C 52% 1020.4 hPa 0 mm - 546 W/m² -
1788194191 22.22° C 53% 1020.6 hPa 0 mm - 733 W/m² -
1788193887 22.22° C 51% 1020.7 hPa 0 mm - 606 W/m² -
1788193593 22.22° C 50% 1020.7 hPa 0 mm - 692 W/m² -
1788193284 22.22° C 51% 1020.8 hPa 0 mm - 710 W/m² -
1788192980 22.22° C 53% 1020.7 hPa 0 mm - 711 W/m² -
1788192677 22.22° C 53% 1021 hPa 0 mm - 676 W/m² -
1788192375 22.22° C 52% 1020.7 hPa 0 mm - 568 W/m² -
1788192071 22.22° C 51% 1021.1 hPa 0 mm - 707 W/m² -
1788191765 21.67° C 53% 1020.9 hPa 0 mm - 552 W/m² -
1788191461 21.67° C 51% 1020.8 hPa 0 mm - 621 W/m² -
1788191156 21.67° C 52% 1021 hPa 0 mm - 642 W/m² -
1788190856 21.67° C 52% 1021.1 hPa 0 mm - 670 W/m² -
1788190555 21.67° C 52% 1021.2 hPa 0 mm - 716 W/m² -
1788190253 22.22° C 52% 1021.1 hPa 0 mm - 724 W/m² -
1788189948 21.67° C 55% 1021 hPa 0 mm - 726 W/m² -
1788189643 21.67° C 54% 1021.3 hPa 0 mm - 722 W/m² -
1788189342 21.67° C 49% 1021.2 hPa 0 mm - 724 W/m² -
1788189037 22.22° C 46% 1021.1 hPa 0 mm - 716 W/m² -
1788188732 21.67° C 48% 1021.4 hPa 0 mm - 706 W/m² -

* Rain latest hour (hover to see other rain measurements)
** Current wind speed in m/s (hover to see current wind gust speed)